User: anonymous   Login
Location: Unspecified
(0.0000°N, 0.0000°E)
Time: 00:55:55
(UTC+00:00)
Language:

CAS-4B - Orbit

View from above orbital plane
View from above orbital plane
View from above satellite
View from above satellite

Ground track
Ground track

The orbit data is extracted from the following two-line orbital elements,

1 42759U 17034B   18173.41189815  .00000125  00000-0  21290-4 0  9995
2 42759  43.0195  54.5838 0008230 144.6239 201.7340 15.09305521 56230
Epoch (UTC): 22 June 2018 09:53:08
Eccentricity: 0.0008230
inclination: 43.0195°
perigee height: 532 km
apogee height: 544 km
right ascension of ascending node: 54.5838°
argument of perigee: 144.6239°
revolutions per day: 15.09305521
mean anomaly at epoch: 201.7340°
orbit number at epoch: 5623

The dashed part of the orbit path shows where the satellite is in the earth's shadow,  

DLR